Das Wetter in  D-61279 Heinzenberg / Taunus





Wetter Minimum- & Maximum-Werte im Januar 2007

Standort: Heinzenberg / Taunus - Höhe 297 m         8 24' 1" Ost 50 21' 51" Nord
(   3-stündige Aktualisierung    letzte Aktualisierung um 19:04 am 31.01.2007  )


Messgrösse

Minimum

Maximum

Durchschnitt

Temperatur West /
Luftfeuchte West
Anklicken für Monats-Diagramm

-11,9 C

04:55
26.01.2007

43 %

13:13
24.01.2007

14,0 C

17:52
18.01.2007

96 %

08:12
03.01.2007

Temp

5,1 C

Feuchte

82 %

Temperatur Ost /
Luftfeuchte Ost
Anklicken für Monats-Diagramm

-11,3 C

05:45
26.01.2007

--

--
--

13,5 C

18:02
18.01.2007

--

--
--

4,9 C

--

Luftdruck Anklicken für Monats-Diagramm

990,5 hPa

18:02
18.01.2007

1034,0 hPa

04:09
15.01.2007

1018,7 hPa

Taupunkt

-14,0 C

04:55
26.01.2007

10,8 C

13:13
09.01.2007

2,2 C

Windchill
( gefühlte Temperatur )

-17,6 C

00:33
24.01.2007

10,8 C

16:42
13.01.2007

-1,0 C

Windgeschwindigkeit /
Windrichtung
Anklicken für Monats-Diagramm

---

103,6 km/h / W-SW

15:57
18.01.2007

18,5 km/h
W-SW

Helligkeit /
Sonnenschein
Anklicken für Monats-Diagramm
Anklicken für Monats-Diagramm

Sonnenschein:

39:09 Stunden

Max: 7:25 Std am
15.01.2007

59,700 klux

11:24
30.01.2007

9,5 klux

Solarstrahlung Anklicken für Monats-Diagramm

---

408 W/m

11:24
30.01.2007

73 W/m

Regenmenge
    Januar 2007
Anklicken für Monats-Diagramm

Insgesamt 91,2 l/m

in 74:57 Stunden
an 25 Tagen

11,9 l/m

05:15
01.01.2007

Gesamtmenge

91,2 l/m

Regen-Tage
    Januar 2007
Anklicken für Monats-Diagramm

>   0 mm/Tag

>   2 mm/Tag

>   5 mm/Tag

> 10 mm/Tag

> 20 mm/Tag

25 Tage     
14 Tage     
8 Tage     
3 Tage     
0 Tage     

Eisige Tage Januar 2007 / 2006

Tmin ≤ -10C     

  1 Tag

/

0 Tage

Eistage Januar 2007 / 2006

Tmax <     0C     

3 Tage

/

0 Tage

Frosttage Januar 2007 / 2006

Tmin ≤     0C     

8 Tage

/

0 Tage

Kalte Tage Januar 2007 / 2006

Tmax <   10C     

21 Tage

/

0 Tage

Warme Tage Januar 2007 / 2006

Tmax ≥   20C     

0 Tage

/

0 Tage

Sommertage Januar 2007 / 2006

Tmax ≥   25C     

0 Tage

/

0 Tage

Heisse Tage Januar 2007 / 2006

Tmax ≥   30C     

0 Tage

/

0 Tage


Monatsdiagramm Januar 2007

Die Kurven zeigen den Durchschnittswert des jeweiligen Tages an


Wetter-Monatsübersicht Januar 2007
Datum
  Temperatur
   Luftdruck
   Wind
  Regen
   Luftfeuchte
   Helligkeit

Sonnen-
schein


Temp.

Min.
Temp.

Max.
Temp.


Luftdruck

Min.
Luftdruck

Max.
Luftdruck

-Geschw.
Haupt-Richtg.

Max.
Wind

Menge /
Dauer


Feuchte

Min.
Feuchte

Max.
Feuchte


Helligkeit

Max.
Helligkeit

1.
Januar
6,8 C2,9 C
23:55
11,2 C
05:10
1016,0 hPa1012,0 hPa
14:20
1019,8 hPa
20:50
23,4 km/h
W-SW
69,5 km/h
14:55  
11,9 l/m
5:51 Stunden
85 %74 %
10:15
95 %
02:35
5,8 klux42,6 klux
13:15
20 Min 
2.
Januar
3,3 C0,2 C
02:46
4,7 C
12:56
1019,5 hPa1014,6 hPa
05:16
1026,0 hPa
23:11
17,2 km/h
W
36,5 km/h
09:06  
2,2 l/m
4:55 Stunden
89 %79 %
13:16
95 %
08:36
6,8 klux36,4 klux
11:36
20 Min 
3.
Januar
4,8 C2,6 C
07:02
6,2 C
23:03
1027,8 hPa1021,5 hPa
23:13
1031,2 hPa
08:17
12,9 km/h
W-SW
25,1 km/h
11:02  
0,4 l/m
1:30 Stunden
88 %79 %
14:17
96 %
08:12
8,7 klux38,7 klux
11:02
50 Min 
4.
Januar
6,3 C5,3 C
08:03
7,6 C
14:58
1013,4 hPa1009,9 hPa
14:58
1020,5 hPa
00:03
23,7 km/h
W-SW
43,4 km/h
14:38  
5,4 l/m
5:55 Stunden
87 %80 %
17:38
94 %
13:08
5,0 klux17,9 klux
13:33
5 Min 
5.
Januar
6,9 C5,7 C
08:19
8,4 C
22:45
1019,9 hPa1015,3 hPa
00:59
1021,5 hPa
10:24
20,9 km/h
W-SW
33,0 km/h
22:45  
1,1 l/m
1:51 Stunden
87 %83 %
12:19
93 %
00:09
3,6 klux11,4 klux
14:39
--- 
6.
Januar
8,8 C7,5 C
01:05
9,7 C
14:20
1018,5 hPa1013,8 hPa
21:55
1021,3 hPa
00:30
18,3 km/h
W-SW
31,3 km/h
19:35  
10,8 l/m
7:35 Stunden
93 %90 %
09:10
95 %
02:20
4,8 klux13,7 klux
13:35
--- 
7.
Januar
7,1 C5,2 C
23:37
9,6 C
00:51
1018,0 hPa1012,8 hPa
00:51
1021,6 hPa
10:16
17,6 km/h
W-SW
52,7 km/h
03:21  
10,4 l/m
3:45 Stunden
84 %69 %
14:36
95 %
01:36
15,4 klux48,9 klux
12:26
3:55 Std 
8.
Januar
7,7 C5,6 C
00:17
9,6 C
15:52
1009,1 hPa1005,6 hPa
14:27
1015,4 hPa
00:17
19,1 km/h
W-SW
36,0 km/h
12:02  
4,7 l/m
3:21 Stunden
86 %77 %
17:07
94 %
22:47
4,8 klux13,4 klux
12:07
5 Min 
9.
Januar
11,7 C8,2 C
00:03
13,4 C
12:03
1013,0 hPa1007,6 hPa
02:08
1018,7 hPa
23:33
24,4 km/h
W-SW
44,9 km/h
13:38  
0,4 l/m
40 Minuten
83 %69 %
23:23
93 %
00:03
7,4 klux34,9 klux
12:03
20 Min 
10.
Januar
10,0 C5,4 C
23:34
12,2 C
13:44
1017,0 hPa1013,5 hPa
19:04
1021,6 hPa
23:54
24,2 km/h
W-SW
54,4 km/h
19:54  
2,2 l/m
1:10 Stunden
78 %65 %
13:49
92 %
20:54
14,5 klux53,0 klux
11:59
3:05 Std 
11.
Januar
6,2 C4,0 C
04:55
9,0 C
19:20
1016,4 hPa1007,7 hPa
19:15
1023,7 hPa
03:10
33,3 km/h
W-SW
75,5 km/h
19:15  
5,8 l/m
2:56 Stunden
77 %63 %
14:50
94 %
22:26
3,9 klux9,6 klux
11:30
--- 
12.
Januar
8,1 C6,4 C
00:01
10,0 C
22:21
1021,9 hPa1014,1 hPa
00:26
1025,5 hPa
10:26
30,7 km/h
W
46,3 km/h
22:06  
0,4 l/m
5 Minuten
75 %70 %
03:41
92 %
00:01
13,5 klux45,6 klux
12:21
2:10 Std 
13.
Januar
10,4 C9,6 C
06:37
11,6 C
14:02
1022,5 hPa1018,9 hPa
23:18
1025,0 hPa
11:17
23,0 km/h
W
48,4 km/h
00:16  
---
10 Minuten
80 %71 %
15:02
87 %
04:32
5,4 klux12,3 klux
12:57
--- 
14.
Januar
6,9 C0,1 C
23:39
10,4 C
00:53
1028,1 hPa1018,9 hPa
00:53
1033,7 hPa
23:39
20,5 km/h
W
48,6 km/h
00:53  
---
20 Minuten
74 %57 %
14:13
87 %
23:44
21,4 klux47,6 klux
11:13
6:10 Std 
15.
Januar
0,1 C-2,6 C
07:39
9,9 C
14:49
1030,1 hPa1025,6 hPa
23:49
1034,0 hPa
04:09
0,5 km/h
W-NW
8,9 km/h
13:49  
---
87 %65 %
14:59
93 %
10:49
24,4 klux43,4 klux
12:29
7:25 Std 
16.
Januar
3,2 C-2,4 C
02:15
6,2 C
14:55
1023,4 hPa1020,5 hPa
23:56
1025,6 hPa
00:04
3,1 km/h
W-SW
22,3 km/h
20:11  
---
89 %84 %
17:40
93 %
05:35
6,2 klux14,6 klux
12:30
--- 
17.
Januar
8,2 C6,2 C
00:01
10,1 C
20:31
1016,5 hPa1010,7 hPa
23:26
1020,5 hPa
00:01
20,6 km/h
W-SW
54,2 km/h
17:41  
1,5 l/m
2:35 Stunden
87 %79 %
16:26
93 %
08:11
4,2 klux18,2 klux
13:36
--- 
18.
Januar
11,4 C9,1 C
05:12
14,0 C
17:52
999,7 hPa990,5 hPa
18:02
1010,8 hPa
00:01
49,1 km/h
W-SW
103,6 km/h
15:57  
9,7 l/m
6:55 Stunden
83 %57 %
23:33
94 %
03:57
2,0 klux4,8 klux
13:52
--- 
19.
Januar
8,7 C6,6 C
04:48
11,1 C
00:08
1012,9 hPa1002,2 hPa
00:08
1022,2 hPa
20:24
24,9 km/h
W
68,5 km/h
00:13  
9,6 l/m
8:25 Stunden
83 %58 %
00:03
96 %
06:03
5,64 klux48,80 klux
12:53
15 Min 
20.
Januar
10,6 C6,1 C
23:50
13,4 C
14:09
1015,1 hPa1012,3 hPa
14:09
1021,0 hPa
00:14
29,7 km/h
W
56,5 km/h
14:34  
5,8 l/m
2:47 Stunden
82 %63 %
13:59
93 %
18:44
14,0 klux57,9 klux
12:19
1:54 Std 
21.
Januar
5,9 C3,7 C
23:16
8,3 C
13:40
1013,3 hPa1010,0 hPa
10:25
1016,6 hPa
23:16
32,9 km/h
W
64,1 km/h
10:20  
---
10 Minuten
71 %51 %
13:45
85 %
00:50
16,3 klux56,7 klux
11:55
3:45 Std 
22.
Januar
2,5 C-2,4 C
23:57
5,3 C
13:11
1017,1 hPa1015,4 hPa
14:56
1021,5 hPa
22:27
8,4 km/h
W-SW
37,3 km/h
00:31  
---
40 Minuten
79 %60 %
22:17
88 %
19:21
10,9 klux26,9 klux
10:41
45 Min 
23.
Januar
-3,4 C-6,3 C
07:52
0,7 C
15:02
1014,2 hPa1006,2 hPa
23:03
1021,6 hPa
00:12
5,2 km/h
NO
27,2 km/h
17:32  
---
67 %59 %
14:47
78 %
08:47
18,4 klux53,3 klux
12:07
3:45 Std 
24.
Januar
-4,2 C-6,9 C
08:43
-0,3 C
15:28
1008,4 hPa1005,3 hPa
01:08
1015,9 hPa
23:59
1,9 km/h
N
26,1 km/h
00:33  
---
60 %43 %
13:13
75 %
23:14
12,9 klux25,8 klux
12:18
10 Min 
25.
Januar
-4,7 C-9,8 C
23:50
-0,2 C
12:39
1022,0 hPa1015,9 hPa
00:04
1026,8 hPa
23:50
1,4 km/h
N-NO
16,0 km/h
13:39  
---
77 %63 %
15:19
87 %
09:39
8,9 klux44,1 klux
10:59
30 Min 
26.
Januar
-5,8 C-11,9 C
04:55
-0,9 C
23:46
1023,5 hPa1019,3 hPa
23:46
1027,0 hPa
02:00
10,0 km/h
W-SW
37,9 km/h
20:45  
0,3 l/m
10 Minuten
79 %64 %
14:45
90 %
22:51
7,4 klux20,0 klux
14:45
--- 
27.
Januar
1,1 C-0,9 C
00:01
2,3 C
14:36
1025,4 hPa1019,2 hPa
01:56
1031,4 hPa
22:12
17,0 km/h
W
34,8 km/h
00:11  
2,6 l/m
2:10 Stunden
89 %81 %
15:11
95 %
05:46
10,4 klux35,5 klux
11:46
55 Min 
28.
Januar
3,0 C1,8 C
00:02
4,3 C
11:37
1025,6 hPa1020,8 hPa
23:43
1032,4 hPa
00:17
27,1 km/h
W
42,9 km/h
16:02  
3,3 l/m
4:25 Stunden
87 %73 %
15:02
95 %
22:53
4,3 klux14,7 klux
11:32
--- 
29.
Januar
5,2 C3,4 C
00:03
7,4 C
13:23
1022,7 hPa1020,6 hPa
05:48
1026,0 hPa
21:39
16,4 km/h
W
41,5 km/h
01:38  
2,9 l/m
6:25 Stunden
89 %74 %
15:47
96 %
00:13
8,4 klux53,7 klux
12:03
15 Min 
30.
Januar
4,9 C2,4 C
04:34
7,1 C
14:14
1025,4 hPa1024,5 hPa
14:44
1026,8 hPa
19:59
2,6 km/h
NW
15,0 km/h
11:49  
---
11 Minuten
85 %78 %
15:19
94 %
09:59
7,5 klux59,7 klux
11:24
20 Min 
31.
Januar
5,4 C3,6 C
05:00
8,4 C
15:10
1022,2 hPa1019,3 hPa
16:40
1025,9 hPa
00:00
14,0 km/h
W
31,5 km/h
22:26  
---
78 %67 %
15:15
86 %
00:15
10,7 klux43,5 klux
14:55
1:50 Std 



Januar
2007

Temperatur

  

Luftdruck

  

Wind

  

Regen

  

Luftfeuchte

  

Helligkeit

Sonnen-
schein

Min

Max

Min

Max

Max

Max

Min

Max

Max

Max

5,1 C

-11,9 C

04:55 Uhr
26.01.2007

14,0 C

17:52 Uhr
18.01.2007

1018,7 hPa

990,5 hPa

18:02 Uhr
18.01.2007

1034,0 hPa

04:09 Uhr
15.01.2007

18,5 km/h

W-SW

103,6 km/h

15:57 Uhr
18.01.2007

11,9 l/m

5:51 Stunden
01.01.2007

82 %

43 %

13:13 Uhr
24.01.2007

96 %

08:12 Uhr
03.01.2007

9,5 klux

59,7 klux

11:24 Uhr
30.01.2007

7:25 Std

am
15.01.2007

Gesamt

Gesamt

91,2 l/m

25 Tage
74:57 h

39:09 Std


Wetter-Diagramme Januar 2007     Heinzenberg / Taunus   
TemperaturLuftfeuchte
SolarstrahlungLuftdruck
HelligkeitSonnenschein
RegenmengeRegendauer
Wind-GeschwindigkeitWind-Richtung